Date_Time,Julian_Date,Latitude,Longitude,Instrument_Depth,Water_Salinity
(yyyy-mm-dd hh:mn:ss UTC),(JD),(+ deg. North),(+ deg. East),(m),(ppt)
1984-01-04 18:30:00 UTC,2445704.270833,28.7317,-95.2428,0215,0.3720
1984-01-04 19:00:00 UTC,2445704.291667,28.7317,-95.2428,0215,0.3740
1984-01-04 19:30:00 UTC,2445704.312500,28.7317,-95.2428,0215,0.3770
1984-01-04 20:00:00 UTC,2445704.333333,28.7317,-95.2428,0215,0.3800
1984-01-04 20:30:00 UTC,2445704.354167,28.7317,-95.2428,0215,0.3820
1984-01-04 21:00:00 UTC,2445704.375000,28.7317,-95.2428,0215,0.3820
1984-01-04 21:30:00 UTC,2445704.395833,28.7317,-95.2428,0215,0.3830
1984-01-04 22:00:00 UTC,2445704.416667,28.7317,-95.2428,0215,0.3830
1984-01-04 22:30:00 UTC,2445704.437500,28.7317,-95.2428,0215,0.3830
1984-01-04 23:00:00 UTC,2445704.458333,28.7317,-95.2428,0215,0.3840
1984-01-04 23:30:00 UTC,2445704.479167,28.7317,-95.2428,0215,0.3840
1984-01-05 00:00:00 UTC,2445704.500000,28.7317,-95.2428,0215,0.3840
1984-01-05 00:30:00 UTC,2445704.520833,28.7317,-95.2428,0215,0.3840
1984-01-05 01:00:00 UTC,2445704.541667,28.7317,-95.2428,0215,0.3840
1984-01-05 01:30:00 UTC,2445704.562500,28.7317,-95.2428,0215,0.3820
1984-01-05 02:00:00 UTC,2445704.583333,28.7317,-95.2428,0215,0.3800
1984-01-05 02:30:00 UTC,2445704.604167,28.7317,-95.2428,0215,0.3790
1984-01-05 03:00:00 UTC,2445704.625000,28.7317,-95.2428,0215,0.3790
1984-01-05 03:30:00 UTC,2445704.645833,28.7317,-95.2428,0215,0.3800
1984-01-05 04:00:00 UTC,2445704.666667,28.7317,-95.2428,0215,0.3810
1984-01-05 04:30:00 UTC,2445704.687500,28.7317,-95.2428,0215,0.3820
1984-01-05 05:00:00 UTC,2445704.708333,28.7317,-95.2428,0215,0.3820
1984-01-05 05:30:00 UTC,2445704.729167,28.7317,-95.2428,0215,0.3820
1984-01-05 06:00:00 UTC,2445704.750000,28.7317,-95.2428,0215,0.3830
1984-01-05 06:30:00 UTC,2445704.770833,28.7317,-95.2428,0215,0.3840
1984-01-05 07:00:00 UTC,2445704.791667,28.7317,-95.2428,0215,0.3860
1984-01-05 07:30:00 UTC,2445704.812500,28.7317,-95.2428,0215,0.3850
1984-01-05 08:00:00 UTC,2445704.833333,28.7317,-95.2428,0215,0.3850
1984-01-05 08:30:00 UTC,2445704.854167,28.7317,-95.2428,0215,0.3860
1984-01-05 09:00:00 UTC,2445704.875000,28.7317,-95.2428,0215,0.3860
1984-01-05 09:30:00 UTC,2445704.895833,28.7317,-95.2428,0215,0.3830
1984-01-05 10:00:00 UTC,2445704.916667,28.7317,-95.2428,0215,0.3800
1984-01-05 10:30:00 UTC,2445704.937500,28.7317,-95.2428,0215,0.3780
1984-01-05 11:00:00 UTC,2445704.958333,28.7317,-95.2428,0215,0.3800
1984-01-05 11:30:00 UTC,2445704.979167,28.7317,-95.2428,0215,0.3810
1984-01-05 12:00:00 UTC,2445705.000000,28.7317,-95.2428,0215,0.3820
1984-01-05 12:30:00 UTC,2445705.020833,28.7317,-95.2428,0215,0.3820
1984-01-05 13:00:00 UTC,2445705.041667,28.7317,-95.2428,0215,0.3820
1984-01-05 13:30:00 UTC,2445705.062500,28.7317,-95.2428,0215,0.3830
1984-01-05 14:00:00 UTC,2445705.083333,28.7317,-95.2428,0215,0.3820
1984-01-05 14:30:00 UTC,2445705.104167,28.7317,-95.2428,0215,0.3820
1984-01-05 15:00:00 UTC,2445705.125000,28.7317,-95.2428,0215,0.3820
1984-01-05 15:30:00 UTC,2445705.145833,28.7317,-95.2428,0215,0.3830
1984-01-05 16:00:00 UTC,2445705.166667,28.7317,-95.2428,0215,0.3840
1984-01-05 16:30:00 UTC,2445705.187500,28.7317,-95.2428,0215,0.3850
1984-01-05 17:00:00 UTC,2445705.208333,28.7317,-95.2428,0215,0.3850
1984-01-05 17:30:00 UTC,2445705.229167,28.7317,-95.2428,0215,0.3850
1984-01-05 18:00:00 UTC,2445705.250000,28.7317,-95.2428,0215,0.3830
1984-01-05 18:30:00 UTC,2445705.270833,28.7317,-95.2428,0215,0.3810
1984-01-05 19:00:00 UTC,2445705.291667,28.7317,-95.2428,0215,0.3780
1984-01-05 19:30:00 UTC,2445705.312500,28.7317,-95.2428,0215,0.3730
1984-01-05 20:00:00 UTC,2445705.333333,28.7317,-95.2428,0215,0.3700
1984-01-05 20:30:00 UTC,2445705.354167,28.7317,-95.2428,0215,0.3680
1984-01-05 21:00:00 UTC,2445705.375000,28.7317,-95.2428,0215,0.3690
1984-01-05 21:30:00 UTC,2445705.395833,28.7317,-95.2428,0215,0.3720
1984-01-05 22:00:00 UTC,2445705.416667,28.7317,-95.2428,0215,0.3740
1984-01-05 22:30:00 UTC,2445705.437500,28.7317,-95.2428,0215,0.3750
1984-01-05 23:00:00 UTC,2445705.458333,28.7317,-95.2428,0215,0.3780
1984-01-05 23:30:00 UTC,2445705.479167,28.7317,-95.2428,0215,0.3800
1984-01-06 00:00:00 UTC,2445705.500000,28.7317,-95.2428,0215,0.3800
1984-01-06 00:30:00 UTC,2445705.520833,28.7317,-95.2428,0215,0.3770
1984-01-06 01:00:00 UTC,2445705.541667,28.7317,-95.2428,0215,0.3730
1984-01-06 01:30:00 UTC,2445705.562500,28.7317,-95.2428,0215,0.3710
1984-01-06 02:00:00 UTC,2445705.583333,28.7317,-95.2428,0215,0.3710
1984-01-06 02:30:00 UTC,2445705.604167,28.7317,-95.2428,0215,0.3690
1984-01-06 03:00:00 UTC,2445705.625000,28.7317,-95.2428,0215,0.3670
1984-01-06 03:30:00 UTC,2445705.645833,28.7317,-95.2428,0215,0.3670
1984-01-06 04:00:00 UTC,2445705.666667,28.7317,-95.2428,0215,0.3680
1984-01-06 04:30:00 UTC,2445705.687500,28.7317,-95.2428,0215,0.3680
1984-01-06 05:00:00 UTC,2445705.708333,28.7317,-95.2428,0215,0.3670
1984-01-06 05:30:00 UTC,2445705.729167,28.7317,-95.2428,0215,0.3640
1984-01-06 06:00:00 UTC,2445705.750000,28.7317,-95.2428,0215,0.3630
1984-01-06 06:30:00 UTC,2445705.770833,28.7317,-95.2428,0215,0.3630
1984-01-06 07:00:00 UTC,2445705.791667,28.7317,-95.2428,0215,0.3610
1984-01-06 07:30:00 UTC,2445705.812500,28.7317,-95.2428,0215,0.3570
1984-01-06 08:00:00 UTC,2445705.833333,28.7317,-95.2428,0215,0.3520
1984-01-06 08:30:00 UTC,2445705.854167,28.7317,-95.2428,0215,0.3450
1984-01-06 09:00:00 UTC,2445705.875000,28.7317,-95.2428,0215,0.3410
1984-01-06 09:30:00 UTC,2445705.895833,28.7317,-95.2428,0215,0.3390
1984-01-06 10:00:00 UTC,2445705.916667,28.7317,-95.2428,0215,0.3390
1984-01-06 10:30:00 UTC,2445705.937500,28.7317,-95.2428,0215,0.3400
1984-01-06 11:00:00 UTC,2445705.958333,28.7317,-95.2428,0215,0.3480
1984-01-06 11:30:00 UTC,2445705.979167,28.7317,-95.2428,0215,0.3620
1984-01-06 12:00:00 UTC,2445706.000000,28.7317,-95.2428,0215,0.3680
1984-01-06 12:30:00 UTC,2445706.020833,28.7317,-95.2428,0215,0.3690
1984-01-06 13:00:00 UTC,2445706.041667,28.7317,-95.2428,0215,0.3690
1984-01-06 13:30:00 UTC,2445706.062500,28.7317,-95.2428,0215,0.3690
1984-01-06 14:00:00 UTC,2445706.083333,28.7317,-95.2428,0215,0.3700
1984-01-06 14:30:00 UTC,2445706.104167,28.7317,-95.2428,0215,0.3700
1984-01-06 15:00:00 UTC,2445706.125000,28.7317,-95.2428,0215,0.3710
1984-01-06 15:30:00 UTC,2445706.145833,28.7317,-95.2428,0215,0.3730
1984-01-06 16:00:00 UTC,2445706.166667,28.7317,-95.2428,0215,0.3740
1984-01-06 16:30:00 UTC,2445706.187500,28.7317,-95.2428,0215,0.3740
1984-01-06 17:00:00 UTC,2445706.208333,28.7317,-95.2428,0215,0.3740
1984-01-06 17:30:00 UTC,2445706.229167,28.7317,-95.2428,0215,0.3740
1984-01-06 18:00:00 UTC,2445706.250000,28.7317,-95.2428,0215,0.3760
1984-01-06 18:30:00 UTC,2445706.270833,28.7317,-95.2428,0215,0.3760
1984-01-06 19:00:00 UTC,2445706.291667,28.7317,-95.2428,0215,0.3770
1984-01-06 19:30:00 UTC,2445706.312500,28.7317,-95.2428,0215,0.3760
1984-01-06 20:00:00 UTC,2445706.333333,28.7317,-95.2428,0215,0.3750
1984-01-06 20:30:00 UTC,2445706.354167,28.7317,-95.2428,0215,0.3740
1984-01-06 21:00:00 UTC,2445706.375000,28.7317,-95.2428,0215,0.3750
1984-01-06 21:30:00 UTC,2445706.395833,28.7317,-95.2428,0215,0.3770
1984-01-06 22:00:00 UTC,2445706.416667,28.7317,-95.2428,0215,0.3790
1984-01-06 22:30:00 UTC,2445706.437500,28.7317,-95.2428,0215,0.3810
1984-01-06 23:00:00 UTC,2445706.458333,28.7317,-95.2428,0215,0.3820
1984-01-06 23:30:00 UTC,2445706.479167,28.7317,-95.2428,0215,0.3830
1984-01-07 00:00:00 UTC,2445706.500000,28.7317,-95.2428,0215,0.3840
1984-01-07 00:30:00 UTC,2445706.520833,28.7317,-95.2428,0215,0.3850
1984-01-07 01:00:00 UTC,2445706.541667,28.7317,-95.2428,0215,0.3850
1984-01-07 01:30:00 UTC,2445706.562500,28.7317,-95.2428,0215,0.3850
1984-01-07 02:00:00 UTC,2445706.583333,28.7317,-95.2428,0215,0.3820
1984-01-07 02:30:00 UTC,2445706.604167,28.7317,-95.2428,0215,0.3790
1984-01-07 03:00:00 UTC,2445706.625000,28.7317,-95.2428,0215,0.3770
1984-01-07 03:30:00 UTC,2445706.645833,28.7317,-95.2428,0215,0.3770
1984-01-07 04:00:00 UTC,2445706.666667,28.7317,-95.2428,0215,0.3760
1984-01-07 04:30:00 UTC,2445706.687500,28.7317,-95.2428,0215,0.3750
1984-01-07 05:00:00 UTC,2445706.708333,28.7317,-95.2428,0215,0.3740
1984-01-07 05:30:00 UTC,2445706.729167,28.7317,-95.2428,0215,0.3740
1984-01-07 06:00:00 UTC,2445706.750000,28.7317,-95.2428,0215,0.3750
1984-01-07 06:30:00 UTC,2445706.770833,28.7317,-95.2428,0215,0.3750
1984-01-07 07:00:00 UTC,2445706.791667,28.7317,-95.2428,0215,0.3760
1984-01-07 07:30:00 UTC,2445706.812500,28.7317,-95.2428,0215,0.3780
1984-01-07 08:00:00 UTC,2445706.833333,28.7317,-95.2428,0215,0.3810
1984-01-07 08:30:00 UTC,2445706.854167,28.7317,-95.2428,0215,0.3830
1984-01-07 09:00:00 UTC,2445706.875000,28.7317,-95.2428,0215,0.3840
1984-01-07 09:30:00 UTC,2445706.895833,28.7317,-95.2428,0215,0.3850
1984-01-07 10:00:00 UTC,2445706.916667,28.7317,-95.2428,0215,0.3860
1984-01-07 10:30:00 UTC,2445706.937500,28.7317,-95.2428,0215,0.3860
1984-01-07 11:00:00 UTC,2445706.958333,28.7317,-95.2428,0215,0.3870
1984-01-07 11:30:00 UTC,2445706.979167,28.7317,-95.2428,0215,0.3870
1984-01-07 12:00:00 UTC,2445707.000000,28.7317,-95.2428,0215,0.3880
1984-01-07 12:30:00 UTC,2445707.020833,28.7317,-95.2428,0215,0.3890
1984-01-07 13:00:00 UTC,2445707.041667,28.7317,-95.2428,0215,0.3880
1984-01-07 13:30:00 UTC,2445707.062500,28.7317,-95.2428,0215,0.3860
1984-01-07 14:00:00 UTC,2445707.083333,28.7317,-95.2428,0215,0.3820
1984-01-07 14:30:00 UTC,2445707.104167,28.7317,-95.2428,0215,0.3790
1984-01-07 15:00:00 UTC,2445707.125000,28.7317,-95.2428,0215,0.3760
1984-01-07 15:30:00 UTC,2445707.145833,28.7317,-95.2428,0215,0.3750
1984-01-07 16:00:00 UTC,2445707.166667,28.7317,-95.2428,0215,0.3740
1984-01-07 16:30:00 UTC,2445707.187500,28.7317,-95.2428,0215,0.3730
1984-01-07 17:00:00 UTC,2445707.208333,28.7317,-95.2428,0215,0.3730
1984-01-07 17:30:00 UTC,2445707.229167,28.7317,-95.2428,0215,0.3730
1984-01-07 18:00:00 UTC,2445707.250000,28.7317,-95.2428,0215,0.3700
1984-01-07 18:30:00 UTC,2445707.270833,28.7317,-95.2428,0215,0.3680
1984-01-07 19:00:00 UTC,2445707.291667,28.7317,-95.2428,0215,0.3670
1984-01-07 19:30:00 UTC,2445707.312500,28.7317,-95.2428,0215,0.3660
1984-01-07 20:00:00 UTC,2445707.333333,28.7317,-95.2428,0215,0.3660
1984-01-07 20:30:00 UTC,2445707.354167,28.7317,-95.2428,0215,0.3660
1984-01-07 21:00:00 UTC,2445707.375000,28.7317,-95.2428,0215,0.3650
1984-01-07 21:30:00 UTC,2445707.395833,28.7317,-95.2428,0215,0.3640
1984-01-07 22:00:00 UTC,2445707.416667,28.7317,-95.2428,0215,0.3640
1984-01-07 22:30:00 UTC,2445707.437500,28.7317,-95.2428,0215,0.3630
1984-01-07 23:00:00 UTC,2445707.458333,28.7317,-95.2428,0215,0.3640
1984-01-07 23:30:00 UTC,2445707.479167,28.7317,-95.2428,0215,0.3650
1984-01-08 00:00:00 UTC,2445707.500000,28.7317,-95.2428,0215,0.3660
1984-01-08 00:30:00 UTC,2445707.520833,28.7317,-95.2428,0215,0.3640
1984-01-08 01:00:00 UTC,2445707.541667,28.7317,-95.2428,0215,0.3620
1984-01-08 01:30:00 UTC,2445707.562500,28.7317,-95.2428,0215,0.3610
1984-01-08 02:00:00 UTC,2445707.583333,28.7317,-95.2428,0215,0.3600
1984-01-08 02:30:00 UTC,2445707.604167,28.7317,-95.2428,0215,0.3590
1984-01-08 03:00:00 UTC,2445707.625000,28.7317,-95.2428,0215,0.3580
1984-01-08 03:30:00 UTC,2445707.645833,28.7317,-95.2428,0215,0.3580
1984-01-08 04:00:00 UTC,2445707.666667,28.7317,-95.2428,0215,0.3580
1984-01-08 04:30:00 UTC,2445707.687500,28.7317,-95.2428,0215,0.3590
1984-01-08 05:00:00 UTC,2445707.708333,28.7317,-95.2428,0215,0.3590
1984-01-08 05:30:00 UTC,2445707.729167,28.7317,-95.2428,0215,0.3590
1984-01-08 06:00:00 UTC,2445707.750000,28.7317,-95.2428,0215,0.3590
1984-01-08 06:30:00 UTC,2445707.770833,28.7317,-95.2428,0215,0.3590
1984-01-08 07:00:00 UTC,2445707.791667,28.7317,-95.2428,0215,0.3590
1984-01-08 07:30:00 UTC,2445707.812500,28.7317,-95.2428,0215,0.3580
1984-01-08 08:00:00 UTC,2445707.833333,28.7317,-95.2428,0215,0.3570
1984-01-08 08:30:00 UTC,2445707.854167,28.7317,-95.2428,0215,0.3570
1984-01-08 09:00:00 UTC,2445707.875000,28.7317,-95.2428,0215,0.3580
1984-01-08 09:30:00 UTC,2445707.895833,28.7317,-95.2428,0215,0.3600
1984-01-08 10:00:00 UTC,2445707.916667,28.7317,-95.2428,0215,0.3610
1984-01-08 10:30:00 UTC,2445707.937500,28.7317,-95.2428,0215,0.3610
1984-01-08 11:00:00 UTC,2445707.958333,28.7317,-95.2428,0215,0.3620
1984-01-08 11:30:00 UTC,2445707.979167,28.7317,-95.2428,0215,0.3630
1984-01-08 12:00:00 UTC,2445708.000000,28.7317,-95.2428,0215,0.3640
1984-01-08 12:30:00 UTC,2445708.020833,28.7317,-95.2428,0215,0.3650
1984-01-08 13:00:00 UTC,2445708.041667,28.7317,-95.2428,0215,0.3660
1984-01-08 13:30:00 UTC,2445708.062500,28.7317,-95.2428,0215,0.3650
1984-01-08 14:00:00 UTC,2445708.083333,28.7317,-95.2428,0215,0.3640
1984-01-08 14:30:00 UTC,2445708.104167,28.7317,-95.2428,0215,0.3640
1984-01-08 15:00:00 UTC,2445708.125000,28.7317,-95.2428,0215,0.3640
1984-01-08 15:30:00 UTC,2445708.145833,28.7317,-95.2428,0215,0.3630
1984-01-08 16:00:00 UTC,2445708.166667,28.7317,-95.2428,0215,0.3640
1984-01-08 16:30:00 UTC,2445708.187500,28.7317,-95.2428,0215,0.3650
1984-01-08 17:00:00 UTC,2445708.208333,28.7317,-95.2428,0215,0.3650
1984-01-08 17:30:00 UTC,2445708.229167,28.7317,-95.2428,0215,0.3640
1984-01-08 18:00:00 UTC,2445708.250000,28.7317,-95.2428,0215,0.3630
1984-01-08 18:30:00 UTC,2445708.270833,28.7317,-95.2428,0215,0.3620
1984-01-08 19:00:00 UTC,2445708.291667,28.7317,-95.2428,0215,0.3630
1984-01-08 19:30:00 UTC,2445708.312500,28.7317,-95.2428,0215,0.3630
1984-01-08 20:00:00 UTC,2445708.333333,28.7317,-95.2428,0215,0.3630
1984-01-08 20:30:00 UTC,2445708.354167,28.7317,-95.2428,0215,0.3640
1984-01-08 21:00:00 UTC,2445708.375000,28.7317,-95.2428,0215,0.3640
1984-01-08 21:30:00 UTC,2445708.395833,28.7317,-95.2428,0215,0.3630
1984-01-08 22:00:00 UTC,2445708.416667,28.7317,-95.2428,0215,0.3640
1984-01-08 22:30:00 UTC,2445708.437500,28.7317,-95.2428,0215,0.3660
1984-01-08 23:00:00 UTC,2445708.458333,28.7317,-95.2428,0215,0.3670
1984-01-08 23:30:00 UTC,2445708.479167,28.7317,-95.2428,0215,0.3680
1984-01-09 00:00:00 UTC,2445708.500000,28.7317,-95.2428,0215,0.3690
1984-01-09 00:30:00 UTC,2445708.520833,28.7317,-95.2428,0215,0.3690
1984-01-09 01:00:00 UTC,2445708.541667,28.7317,-95.2428,0215,0.3670
1984-01-09 01:30:00 UTC,2445708.562500,28.7317,-95.2428,0215,0.3650
1984-01-09 02:00:00 UTC,2445708.583333,28.7317,-95.2428,0215,0.3650
1984-01-09 02:30:00 UTC,2445708.604167,28.7317,-95.2428,0215,0.3660
1984-01-09 03:00:00 UTC,2445708.625000,28.7317,-95.2428,0215,0.3650
1984-01-09 03:30:00 UTC,2445708.645833,28.7317,-95.2428,0215,0.3650
1984-01-09 04:00:00 UTC,2445708.666667,28.7317,-95.2428,0215,0.3650
1984-01-09 04:30:00 UTC,2445708.687500,28.7317,-95.2428,0215,0.3640
1984-01-09 05:00:00 UTC,2445708.708333,28.7317,-95.2428,0215,0.3620
1984-01-09 05:30:00 UTC,2445708.729167,28.7317,-95.2428,0215,0.3590
1984-01-09 06:00:00 UTC,2445708.750000,28.7317,-95.2428,0215,0.3570
1984-01-09 06:30:00 UTC,2445708.770833,28.7317,-95.2428,0215,0.3560
1984-01-09 07:00:00 UTC,2445708.791667,28.7317,-95.2428,0215,0.3560
1984-01-09 07:30:00 UTC,2445708.812500,28.7317,-95.2428,0215,0.3570
1984-01-09 08:00:00 UTC,2445708.833333,28.7317,-95.2428,0215,0.3590
1984-01-09 08:30:00 UTC,2445708.854167,28.7317,-95.2428,0215,0.3600
1984-01-09 09:00:00 UTC,2445708.875000,28.7317,-95.2428,0215,0.3600
1984-01-09 09:30:00 UTC,2445708.895833,28.7317,-95.2428,0215,0.3600
1984-01-09 10:00:00 UTC,2445708.916667,28.7317,-95.2428,0215,0.3600
1984-01-09 10:30:00 UTC,2445708.937500,28.7317,-95.2428,0215,0.3590
1984-01-09 11:00:00 UTC,2445708.958333,28.7317,-95.2428,0215,0.3580
1984-01-09 11:30:00 UTC,2445708.979167,28.7317,-95.2428,0215,0.3590
1984-01-09 12:00:00 UTC,2445709.000000,28.7317,-95.2428,0215,0.3610
1984-01-09 12:30:00 UTC,2445709.020833,28.7317,-95.2428,0215,0.3630
1984-01-09 13:00:00 UTC,2445709.041667,28.7317,-95.2428,0215,0.3620
1984-01-09 13:30:00 UTC,2445709.062500,28.7317,-95.2428,0215,0.3600
1984-01-09 14:00:00 UTC,2445709.083333,28.7317,-95.2428,0215,0.3580
1984-01-09 14:30:00 UTC,2445709.104167,28.7317,-95.2428,0215,0.3560
1984-01-09 15:00:00 UTC,2445709.125000,28.7317,-95.2428,0215,0.3540
1984-01-09 15:30:00 UTC,2445709.145833,28.7317,-95.2428,0215,0.3530
1984-01-09 16:00:00 UTC,2445709.166667,28.7317,-95.2428,0215,0.3520
1984-01-09 16:30:00 UTC,2445709.187500,28.7317,-95.2428,0215,0.3530
1984-01-09 17:00:00 UTC,2445709.208333,28.7317,-95.2428,0215,0.3550
1984-01-09 17:30:00 UTC,2445709.229167,28.7317,-95.2428,0215,0.3590
1984-01-09 18:00:00 UTC,2445709.250000,28.7317,-95.2428,0215,0.3620
1984-01-09 18:30:00 UTC,2445709.270833,28.7317,-95.2428,0215,0.3650
1984-01-09 19:00:00 UTC,2445709.291667,28.7317,-95.2428,0215,0.3660
1984-01-09 19:30:00 UTC,2445709.312500,28.7317,-95.2428,0215,0.3670
1984-01-09 20:00:00 UTC,2445709.333333,28.7317,-95.2428,0215,0.3680
1984-01-09 20:30:00 UTC,2445709.354167,28.7317,-95.2428,0215,0.3680
1984-01-09 21:00:00 UTC,2445709.375000,28.7317,-95.2428,0215,0.3680
1984-01-09 21:30:00 UTC,2445709.395833,28.7317,-95.2428,0215,0.3690
1984-01-09 22:00:00 UTC,2445709.416667,28.7317,-95.2428,0215,0.3690
1984-01-09 22:30:00 UTC,2445709.437500,28.7317,-95.2428,0215,0.3680
1984-01-09 23:00:00 UTC,2445709.458333,28.7317,-95.2428,0215,0.3660
1984-01-09 23:30:00 UTC,2445709.479167,28.7317,-95.2428,0215,0.3640
1984-01-10 00:00:00 UTC,2445709.500000,28.7317,-95.2428,0215,0.3640
1984-01-10 00:30:00 UTC,2445709.520833,28.7317,-95.2428,0215,0.3640
1984-01-10 01:00:00 UTC,2445709.541667,28.7317,-95.2428,0215,0.3640
1984-01-10 01:30:00 UTC,2445709.562500,28.7317,-95.2428,0215,0.3630
1984-01-10 02:00:00 UTC,2445709.583333,28.7317,-95.2428,0215,0.3600
1984-01-10 02:30:00 UTC,2445709.604167,28.7317,-95.2428,0215,0.3580
1984-01-10 03:00:00 UTC,2445709.625000,28.7317,-95.2428,0215,0.3580
1984-01-10 03:30:00 UTC,2445709.645833,28.7317,-95.2428,0215,0.3580
1984-01-10 04:00:00 UTC,2445709.666667,28.7317,-95.2428,0215,0.3580
1984-01-10 04:30:00 UTC,2445709.687500,28.7317,-95.2428,0215,0.3560
1984-01-10 05:00:00 UTC,2445709.708333,28.7317,-95.2428,0215,0.3550
1984-01-10 05:30:00 UTC,2445709.729167,28.7317,-95.2428,0215,0.3550
1984-01-10 06:00:00 UTC,2445709.750000,28.7317,-95.2428,0215,0.3540
1984-01-10 06:30:00 UTC,2445709.770833,28.7317,-95.2428,0215,0.3530
1984-01-10 07:00:00 UTC,2445709.791667,28.7317,-95.2428,0215,0.3530
1984-01-10 07:30:00 UTC,2445709.812500,28.7317,-95.2428,0215,0.3530
1984-01-10 08:00:00 UTC,2445709.833333,28.7317,-95.2428,0215,0.3530
1984-01-10 08:30:00 UTC,2445709.854167,28.7317,-95.2428,0215,0.3510
1984-01-10 09:00:00 UTC,2445709.875000,28.7317,-95.2428,0215,0.3500
1984-01-10 09:30:00 UTC,2445709.895833,28.7317,-95.2428,0215,0.3510
1984-01-10 10:00:00 UTC,2445709.916667,28.7317,-95.2428,0215,0.3530
1984-01-10 10:30:00 UTC,2445709.937500,28.7317,-95.2428,0215,0.3520
1984-01-10 11:00:00 UTC,2445709.958333,28.7317,-95.2428,0215,0.3500
1984-01-10 11:30:00 UTC,2445709.979167,28.7317,-95.2428,0215,0.3480
1984-01-10 12:00:00 UTC,2445710.000000,28.7317,-95.2428,0215,0.3500
1984-01-10 12:30:00 UTC,2445710.020833,28.7317,-95.2428,0215,0.3520
1984-01-10 13:00:00 UTC,2445710.041667,28.7317,-95.2428,0215,0.3540
1984-01-10 13:30:00 UTC,2445710.062500,28.7317,-95.2428,0215,0.3550
1984-01-10 14:00:00 UTC,2445710.083333,28.7317,-95.2428,0215,0.3540
1984-01-10 14:30:00 UTC,2445710.104167,28.7317,-95.2428,0215,0.3510
1984-01-10 15:00:00 UTC,2445710.125000,28.7317,-95.2428,0215,0.3460
1984-01-10 15:30:00 UTC,2445710.145833,28.7317,-95.2428,0215,0.3410
1984-01-10 16:00:00 UTC,2445710.166667,28.7317,-95.2428,0215,0.3390
1984-01-10 16:30:00 UTC,2445710.187500,28.7317,-95.2428,0215,0.3400
1984-01-10 17:00:00 UTC,2445710.208333,28.7317,-95.2428,0215,0.3400
1984-01-10 17:30:00 UTC,2445710.229167,28.7317,-95.2428,0215,0.3390
1984-01-10 18:00:00 UTC,2445710.250000,28.7317,-95.2428,0215,0.3370
1984-01-10 18:30:00 UTC,2445710.270833,28.7317,-95.2428,0215,0.3370
1984-01-10 19:00:00 UTC,2445710.291667,28.7317,-95.2428,0215,0.3370
1984-01-10 19:30:00 UTC,2445710.312500,28.7317,-95.2428,0215,0.3370
1984-01-10 20:00:00 UTC,2445710.333333,28.7317,-95.2428,0215,0.3380
1984-01-10 20:30:00 UTC,2445710.354167,28.7317,-95.2428,0215,0.3380
1984-01-10 21:00:00 UTC,2445710.375000,28.7317,-95.2428,0215,0.3380
1984-01-10 21:30:00 UTC,2445710.395833,28.7317,-95.2428,0215,0.3380
1984-01-10 22:00:00 UTC,2445710.416667,28.7317,-95.2428,0215,0.3390
1984-01-10 22:30:00 UTC,2445710.437500,28.7317,-95.2428,0215,0.3390
1984-01-10 23:00:00 UTC,2445710.458333,28.7317,-95.2428,0215,0.3390
1984-01-10 23:30:00 UTC,2445710.479167,28.7317,-95.2428,0215,0.3400
1984-01-11 00:00:00 UTC,2445710.500000,28.7317,-95.2428,0215,0.3400
1984-01-11 00:30:00 UTC,2445710.520833,28.7317,-95.2428,0215,0.3400
1984-01-11 01:00:00 UTC,2445710.541667,28.7317,-95.2428,0215,0.3400
1984-01-11 01:30:00 UTC,2445710.562500,28.7317,-95.2428,0215,0.3400
1984-01-11 02:00:00 UTC,2445710.583333,28.7317,-95.2428,0215,0.3400
1984-01-11 02:30:00 UTC,2445710.604167,28.7317,-95.2428,0215,0.3400
1984-01-11 03:00:00 UTC,2445710.625000,28.7317,-95.2428,0215,0.3400
1984-01-11 03:30:00 UTC,2445710.645833,28.7317,-95.2428,0215,0.3400
1984-01-11 04:00:00 UTC,2445710.666667,28.7317,-95.2428,0215,0.3400
1984-01-11 04:30:00 UTC,2445710.687500,28.7317,-95.2428,0215,0.3400
1984-01-11 05:00:00 UTC,2445710.708333,28.7317,-95.2428,0215,0.3420
1984-01-11 05:30:00 UTC,2445710.729167,28.7317,-95.2428,0215,0.3520
1984-01-11 06:00:00 UTC,2445710.750000,28.7317,-95.2428,0215,0.3630
1984-01-11 06:30:00 UTC,2445710.770833,28.7317,-95.2428,0215,0.3700
1984-01-11 07:00:00 UTC,2445710.791667,28.7317,-95.2428,0215,0.3740
1984-01-11 07:30:00 UTC,2445710.812500,28.7317,-95.2428,0215,0.3770
1984-01-11 08:00:00 UTC,2445710.833333,28.7317,-95.2428,0215,0.3780
1984-01-11 08:30:00 UTC,2445710.854167,28.7317,-95.2428,0215,0.3780
1984-01-11 09:00:00 UTC,2445710.875000,28.7317,-95.2428,0215,0.3790
1984-01-11 09:30:00 UTC,2445710.895833,28.7317,-95.2428,0215,0.3800
1984-01-11 10:00:00 UTC,2445710.916667,28.7317,-95.2428,0215,0.3800
1984-01-11 10:30:00 UTC,2445710.937500,28.7317,-95.2428,0215,0.3810
1984-01-11 11:00:00 UTC,2445710.958333,28.7317,-95.2428,0215,0.3820
1984-01-11 11:30:00 UTC,2445710.979167,28.7317,-95.2428,0215,0.3820
1984-01-11 12:00:00 UTC,2445711.000000,28.7317,-95.2428,0215,0.3830
1984-01-11 12:30:00 UTC,2445711.020833,28.7317,-95.2428,0215,0.3830
1984-01-11 13:00:00 UTC,2445711.041667,28.7317,-95.2428,0215,0.3830
1984-01-11 13:30:00 UTC,2445711.062500,28.7317,-95.2428,0215,0.3830
1984-01-11 14:00:00 UTC,2445711.083333,28.7317,-95.2428,0215,0.3840
1984-01-11 14:30:00 UTC,2445711.104167,28.7317,-95.2428,0215,0.3840
1984-01-11 15:00:00 UTC,2445711.125000,28.7317,-95.2428,0215,0.3840
1984-01-11 15:30:00 UTC,2445711.145833,28.7317,-95.2428,0215,0.3840
1984-01-11 16:00:00 UTC,2445711.166667,28.7317,-95.2428,0215,0.3840
1984-01-11 16:30:00 UTC,2445711.187500,28.7317,-95.2428,0215,0.3840
1984-01-11 17:00:00 UTC,2445711.208333,28.7317,-95.2428,0215,0.3830
1984-01-11 17:30:00 UTC,2445711.229167,28.7317,-95.2428,0215,0.3830
1984-01-11 18:00:00 UTC,2445711.250000,28.7317,-95.2428,0215,0.3820
1984-01-11 18:30:00 UTC,2445711.270833,28.7317,-95.2428,0215,0.3820
1984-01-11 19:00:00 UTC,2445711.291667,28.7317,-95.2428,0215,0.3810
1984-01-11 19:30:00 UTC,2445711.312500,28.7317,-95.2428,0215,0.3800
1984-01-11 20:00:00 UTC,2445711.333333,28.7317,-95.2428,0215,0.3790
1984-01-11 20:30:00 UTC,2445711.354167,28.7317,-95.2428,0215,0.3780
1984-01-11 21:00:00 UTC,2445711.375000,28.7317,-95.2428,0215,0.3780
1984-01-11 21:30:00 UTC,2445711.395833,28.7317,-95.2428,0215,0.3780
1984-01-11 22:00:00 UTC,2445711.416667,28.7317,-95.2428,0215,0.3790
1984-01-11 22:30:00 UTC,2445711.437500,28.7317,-95.2428,0215,0.3800
1984-01-11 23:00:00 UTC,2445711.458333,28.7317,-95.2428,0215,0.3790
1984-01-11 23:30:00 UTC,2445711.479167,28.7317,-95.2428,0215,0.3790
1984-01-12 00:00:00 UTC,2445711.500000,28.7317,-95.2428,0215,0.3800
1984-01-12 00:30:00 UTC,2445711.520833,28.7317,-95.2428,0215,0.3810
1984-01-12 01:00:00 UTC,2445711.541667,28.7317,-95.2428,0215,0.3810